This demonstration page uses our WeatherBlox Daily Observations layout. Learn more.

Left ArrowRight Arrow

39.01783, -85.05884

Hourly Observations for April 6, 2019

Temp ( °F °C ) Dew Point ( °F °C ) Humidity (%) Winds ( mph kmh ) Pressure ( in mb ) Visibility ( mi km ) Precip ( " mm )
12:52 am 00:52 Cloudy 55 12.8 49 9.4 80 80 N N/A 30.11 1020 10 16 N/A
1:52 am 01:52 Cloudy 55 12.8 49 9.4 80 80 N N/A 30.12 1020 10 16 N/A
2:52 am 02:52 Cloudy 53 11.7 48 8.9 83 83 N N/A 30.12 1020 10 16 N/A
3:52 am 03:52 Cloudy 54 12.2 49 9.4 83 83 N N/A 30.11 1020 10 16 N/A
4:52 am 04:52 Cloudy 53 11.7 48 8.9 83 83 N N/A 30.12 1020 8 13 N/A
5:52 am 05:52 Cloudy 53 11.7 49 9.4 86 86 N N/A 30.12 1020 10 16 N/A
6:52 am 06:52 Cloudy 54 12.2 49 9.4 83 83 VRB 3 6 30.13 1020 8 13 N/A
7:52 am 07:52 Cloudy with Mist and Fog 53 11.7 49 9.4 86 86 N N/A 30.16 1021 5 8 N/A
8:52 am 08:52 Cloudy with Mist and Fog 55 12.8 51 10.6 87 87 N N/A 30.17 1022 5 8 N/A
9:52 am 09:52 Cloudy 59 15 50 10 72 72 ESE 3 6 30.17 1022 10 16 N/A
10:52 am 10:52 Cloudy 61 16.1 50 10 67 67 SSE 3 6 30.18 1022 10 16 N/A
11:52 am 11:52 Cloudy 63 17.2 51 10.6 65 65 SE 3 6 30.20 1023 10 16 N/A
12:52 pm 12:52 Cloudy 65 18.3 46 7.8 51 51 W 3 6 30.19 1022 10 16 N/A
1:52 pm 13:52 Mostly Cloudy 68 20 47 8.3 47 47 N N/A 30.16 1021 10 16 N/A
2:52 pm 14:52 Mostly Cloudy 68 20 46 7.8 45 45 VRB 7 11 30.14 1021 10 16 N/A
3:52 pm 15:52 Mostly Cloudy 68 20 46 7.8 45 45 SE 10 17 30.12 1020 10 16 N/A
4:52 pm 16:52 Mostly Cloudy 67 19.4 45 7.2 45 45 SSE 8 13 30.10 1019 10 16 N/A
5:52 pm 17:52 Mostly Cloudy 68 20 45 7.2 44 44 SE 12 19 30.09 1019 10 16 N/A
6:52 pm 18:52 Mostly Cloudy 67 19.4 46 7.8 47 47 S 6 9 30.08 1019 10 16 N/A
7:52 pm 19:52 Mostly Cloudy 63 17.2 44 6.7 50 50 SE 5 7 30.09 1019 10 16 N/A
8:52 pm 20:52 Partly Cloudy 60 15.6 44 6.7 56 56 S 3 6 30.11 1020 10 16 N/A
9:52 pm 21:52 Mostly Cloudy 59 15 44 6.7 58 58 N N/A 30.13 1020 10 16 N/A
10:52 pm 22:52 Clear 59 15 45 7.2 60 60 E 5 7 30.11 1020 10 16 N/A
11:52 pm 23:52 Clear 56 13.3 44 6.7 65 65 SE 3 6 30.10 1019 10 16 N/A

Powered by AerisWeather